Location: Palomar Mountain Lodge
(33.3110°N, 116.8495°W)
Time: 03:29:43
(UTC-07:00)

Meteor 2-4 Rocket - Pass Details

Date: 19 May 2017
Orbit: 800 x 908 km, 81.2° (Epoch: 23 June)

Event Time Altitude Azimuth Distance (km) Brightness Sun altitude
Exits shadow 22:24:32 39° 226° (SW) 1,245 4.4 -27.1°
Maximum altitude 22:26:19 55° 280° (W) 1,008 4.2 -27.4°
Drops below altitude 10° 22:31:54 10° 358° (N) 2,507 6.8 -28.1°
Sets 22:34:26 0° 3° (N) 3,465 7.6 -28.4°
